Regional Weather Roundup
Issued by NWS

Home | Current Version | Previous Version | Graphics & Text | Print | Product List | Glossary On
Versions: 1 2 3 4 5 6 7 8 9 10 11 12 13 14 15 16 17 18 19 20 21 22 23 24 25 26 27 28 29 30 31 32 33 34 35 36 37 38 39 40 41 42 43 44 45 46 47 48 49 50
000
ASUS43 KDTX 200110
RWRMI
MICHIGAN HOURLY REGIONAL WEATHER ROUNDUP
NATIONAL WEATHER SERVICE DETROIT/PONTIAC MI
ISSUED BY NATIONAL WEATHER SERVICE GRAND RAPIDS MI
900 PM EDT SAT AUG 19 2017

NOTE: "FAIR" INDICATES FEW OR NO CLOUDS BELOW 12,000 FEET WITH NO
SIGNIFICANT WEATHER AND/OR OBSTRUCTION TO VISIBILITY.

MIZ047>049-052>055-059>063-066>070-074>076-081>083-200200-
SOUTHEAST LOWER MICHIGAN

CITY           SKY/WX    TMP DP  RH WIND       PRES   REMARKS
ADRIAN         CLEAR     70  60  70 CALM      29.97R
ALMA           CLEAR     70  60  69 SW6       29.95R
ANN ARBOR      CLEAR     64  60  87 CALM      29.96R
BAD AXE        CLEAR     66  60  78 CALM      29.92S
DETROIT CITY   CLEAR     75  56  51 CALM      29.95R
DETROIT        PTCLDY    73  57  57 NW6       29.96R
FLINT          CLEAR     70  60  70 SW6       29.95R
GROSSE ILE     CLEAR     72  58  61 CALM      29.95R
HILLSDALE      CLOUDY    64  59  82 CALM      29.98S
HOWELL         CLEAR     70  59  68 SW5       29.96S

CITY           SKY/WX    TMP DP  RH WIND       PRES   REMARKS
JACKSON        CLEAR     68  60  75 SW3       29.97R
LANSING        CLEAR     72  59  63 W7        29.96R
MASON          CLEAR     71  59  65 CALM      29.96S
MONROE         CLEAR     67  62  84 CALM      29.95R
MT. CLEMENS    PTCLDY    72  58  60 SW3       29.93R
PONTIAC        CLEAR     72  59  63 SW3       29.95R
PORT HOPE        N/A     68  64  87 CALM      29.90R
PORT HURON     CLEAR     63  59  88 CALM      29.95R
TRI CITIES     CLEAR     71  63  75 SW6       29.93S
YPSILANTI      CLEAR     69  61  75 CALM      29.97R
$$
MIZ043>046-050>051-056>058-064>065-071>073-077>080-200200-
SOUTHWEST LOWER MICHIGAN

CITY           SKY/WX    TMP DP  RH WIND       PRES   REMARKS
BATTLE CREEK   CLEAR     70  60  70 W5        29.98R
BENTON HARBOR  CLEAR     66  60  81 CALM      29.97S
BIG RAPIDS     CLEAR     66  60  79 SW5       29.95R
COLDWATER      CLEAR     71  57  60 CALM      29.98R
HOLLAND        CLEAR     67  61  81 SW3       29.97S
GRAND RAPIDS   CLEAR     70  61  73 SW7       29.96S
KALAMAZOO      CLEAR     71  55  56 W5        29.97S
MARSHALL       CLEAR     69  58  68 CALM      29.97R
MOUNT PLEASANT CLEAR     72  58  59 W5        29.93S
MUSKEGON       CLEAR     68  63  84 CALM      29.96R
STURGIS        CLEAR     69  60  74 N3        29.97S
$$
MIZ016>042-200200-
NORTHERN LOWER MICHIGAN

CITY           SKY/WX    TMP DP  RH WIND       PRES   REMARKS
ALPENA         CLEAR     65  62  90 CALM      29.90R
BEAVER ISLAND  CLOUDY    67  63  86 SW8       29.89S
BELLAIRE       CLOUDY    67  64  87 CALM      29.90S
CADILLAC       CLEAR     68  61  77 W3        29.94S
CHARLEVOIX     CLOUDY    69  64  84 W8        29.93R
GAYLORD        CLEAR     65  59  81 CALM      29.93R
HOUGHTON LAKE  CLEAR     70  60  70 W5        29.93S
MANISTEE       CLEAR     69  63  81 SW5       29.92S
OSCODA         PTCLDY    66  64  90 CALM      29.89S
PELLSTON       CLEAR     67  63  87 W5        29.90R
TRAVERSE CITY  PTCLDY    72  62  71 CALM      29.89S
LUDINGTON      CLEAR     68  61  76 SW7       29.92S
$$
MIZ007>008-015-200200-
EASTERN UPPER MICHIGAN

CITY           SKY/WX    TMP DP  RH WIND       PRES   REMARKS
KINROSS        CLEAR     66  63  90 SW5       29.88S
MACKINAC ISLAN CLEAR     66  66 100 SW8       29.89R
NEWBERRY       CLEAR     65  64  97 SW6       29.87S
S. S. MARIE    CLEAR     66  60  81 W3        29.87R
$$
MIZ004>006-011>014-085-200200-
CENTRAL UPPER MICHIGAN

CITY           SKY/WX    TMP DP  RH WIND       PRES   REMARKS
MANISTIQUE     CLOUDY    65  60  81 SW3       29.88R
ESCANABA       CLEAR     69  66  90 E5        29.87R
MENOMINEE      CLEAR     73  62  68 SW3       29.89R
SAWYER-GWINN   CLEAR     70  63  78 CALM      29.89S
$$
MIZ001>003-009>011-084-200200-
WESTERN UPPER MICHIGAN

CITY           SKY/WX    TMP DP  RH WIND       PRES   REMARKS
IRON MOUNTAIN  CLEAR     68  60  75 CALM      29.88R
HOUGHTON         N/A     67  56  67 W7        29.85
COPPER HARBOR    N/A     67  59  75 CALM      29.83S
IRONWOOD       CLEAR     68  62  81 CALM      29.89R
$$

ABBREVIATIONS USED IN REMARKS
   TC - TEMPERATURE IN CELSIUS
  WCI - WIND CHILL INDEX
   HX - HEAT INDEX
  VSB - VISIBILITY





USA.gov is the U.S. government's official web portal to all federal, state and local government web resources and services.